Location: Chiroubles
(46.1812°N, 4.6660°E)
Time: 02:25:42
(UTC+00:00)

Lacrosse 4 Rocket - Pass Details

Date: 15 August 2020
Orbit: 544 x 615 km, 68.0° (Epoch: 19 September)

Event Time Altitude Azimuth Distance (km) Brightness Sun altitude
Exits shadow 23:13:50 15° 289° (WNW) 1,605 3.9 -29.7°
Maximum altitude 23:15:30 18° 317° (NW) 1,442 4.0 -29.8°
Drops below altitude 10° 23:18:22 10° 1° (N) 1,863 4.9 -29.8°
Sets 23:21:11 0° 21° (NNE) 2,750 5.8 -29.9°
